"startDT [UTC]","vpos","CH4 [ppm]","stdev(CH4) [ppm]","CO2 [ppm]","stdev(CO2) [ppm]","H2O [ppm]","stdev(H2O)","p_LGR [torr]","T_LGR [C]","mt1_LGR [us]","mt2_LGR [us]","T_ECpre [C]","T_EC1 [C]","T_EC2 [C]","p_inlet [hPa]","p_in [hPa]","p_out [hPa]","T_inlet [C]","RH_inlet [%]","dwpt_inlet [C]","T_vent [C]","RH_vent [%]","dwpt_vent [C]","flow_vent [l min-1]","flow_inlet [l min-1]","dwpt_sample [C]","T_room [C]"
2012-11-25 00:00:00,0.0,1.9362,0.0010,402.31,0.20,30.4,29.8,138.06,30.60,24.65,36.42,0.04,-272.75,-272.75,-43,567,-932,25.0,1.6,-29.8,25.1,1.7,-29.5,5.73,2.32,-27.2,30.0
2012-11-25 00:01:00,0.0,1.9363,0.0009,402.40,0.22,26.4,23.1,138.06,30.60,24.65,36.42,0.04,-272.75,-272.75,-43,567,-932,25.0,1.6,-29.9,25.1,1.6,-29.6,5.73,2.36,-27.2,30.0
2012-11-25 00:02:00,0.0,1.9356,0.0011,402.38,0.20,33.6,27.0,138.06,30.60,24.65,36.41,0.04,-272.74,-272.74,-43,568,-932,25.0,1.6,-30.1,25.1,1.6,-29.8,5.73,2.42,-27.2,30.0
2012-11-25 00:03:00,0.0,1.9324,0.0014,402.42,0.26,38.0,29.8,138.06,30.60,24.65,36.41,0.04,-272.75,-272.75,-42,568,-932,25.0,1.6,-30.2,25.1,1.6,-29.9,5.73,2.40,-27.2,30.0
2012-11-25 00:04:00,0.0,1.9307,0.0011,402.30,0.20,38.1,26.2,138.06,30.60,24.65,36.42,0.04,-272.75,-272.75,-43,568,-932,25.0,1.5,-30.4,25.1,1.6,-30.0,5.73,2.33,-27.2,30.0
2012-11-25 00:05:00,0.0,1.9318,0.0011,402.46,0.24,41.9,25.2,138.06,30.60,24.65,36.41,0.04,-272.75,-272.75,-43,567,-932,25.0,1.5,-30.4,25.1,1.6,-30.1,5.73,2.35,-27.2,30.0
2012-11-25 00:06:00,0.0,1.9333,0.0009,402.37,0.20,35.6,29.0,138.06,30.60,24.65,36.42,0.04,-272.75,-272.75,-43,567,-932,25.0,1.5,-30.5,25.1,1.6,-30.1,5.73,2.41,-27.2,30.0
2012-11-25 00:07:00,0.0,1.9333,0.0009,402.35,0.20,33.8,29.4,138.06,30.60,24.65,36.42,0.04,-272.75,-272.75,-43,567,-932,25.0,1.5,-30.5,25.1,1.6,-30.2,5.73,2.42,-27.2,30.0
2012-11-25 00:08:00,0.0,1.9323,0.0010,402.40,0.23,34.3,27.9,138.06,30.60,24.65,36.41,0.04,-272.75,-272.75,-43,567,-932,25.0,1.5,-30.5,25.1,1.5,-30.3,5.73,2.34,-27.2,30.0
2012-11-25 00:09:00,0.0,1.9317,0.0013,402.30,0.20,39.9,22.9,138.06,30.60,24.65,36.42,0.04,-272.75,-272.75,-42,567,-932,25.0,1.5,-30.5,25.1,1.6,-30.1,5.73,2.33,-27.2,30.0
2012-11-25 00:10:00,0.0,1.9327,0.0009,402.46,0.23,38.5,27.1,138.06,30.60,24.65,36.41,0.04,-272.75,-272.75,-43,567,-932,25.0,1.5,-30.4,25.1,1.6,-30.1,5.73,2.40,-27.3,30.0
2012-11-25 00:11:00,0.0,1.9330,0.0011,402.38,0.21,30.5,22.4,138.06,30.60,24.65,36.42,0.04,-272.75,-272.75,-43,567,-932,25.0,1.6,-30.3,25.1,1.6,-30.0,5.73,2.43,-27.3,30.0
2012-11-25 00:12:00,0.0,1.9309,0.0013,402.25,0.19,29.5,24.1,138.06,30.60,24.66,36.42,0.04,-272.75,-272.75,-43,567,-932,25.0,1.6,-30.1,25.1,1.6,-29.9,5.73,2.36,-27.3,30.0
2012-11-25 00:13:00,0.0,1.9297,0.0011,402.31,0.22,36.3,35.1,138.06,30.60,24.65,36.41,0.04,-272.75,-272.75,-43,567,-932,25.0,1.6,-30.1,25.1,1.6,-29.7,5.73,2.32,-27.3,30.0
2012-11-25 00:14:00,0.0,1.9273,0.0011,402.20,0.20,32.3,30.4,138.06,30.60,24.66,36.42,0.04,-272.75,-272.75,-43,567,-932,25.0,1.6,-30.0,25.1,1.6,-29.7,5.73,2.37,-27.3,30.0
2012-11-25 00:15:00,0.0,1.9283,0.0009,402.24,0.16,35.8,29.1,138.06,30.61,24.65,36.41,0.04,-272.75,-272.75,-43,567,-932,25.0,1.6,-29.8,25.1,1.7,-29.5,5.73,2.43,-27.3,30.0
2012-11-25 00:16:00,0.0,1.9275,0.0009,402.22,0.20,31.3,24.3,138.06,30.60,24.65,36.42,0.04,-272.75,-272.75,-43,567,-932,25.0,1.6,-29.7,25.1,1.7,-29.3,5.73,2.39,-27.3,30.0
2012-11-25 00:17:00,0.0,1.9266,0.0009,402.28,0.21,29.7,25.8,138.06,30.60,24.65,36.41,0.04,-272.75,-272.75,-43,567,-932,25.0,1.7,-29.5,25.1,1.7,-29.2,5.73,2.32,-27.3,30.0
2012-11-25 00:18:00,0.0,1.9263,0.0009,402.08,0.26,35.0,26.7,138.06,30.60,24.65,36.43,0.04,-272.75,-272.75,-43,567,-932,25.0,1.7,-29.2,25.1,1.7,-29.0,5.73,2.35,-27.4,30.0
2012-11-25 00:19:00,0.0,1.9272,0.0015,402.21,0.18,36.9,26.1,138.06,30.60,24.66,36.42,0.04,-272.75,-272.75,-43,568,-932,25.0,1.7,-29.3,25.1,1.8,-28.9,5.73,2.42,-27.4,30.0
2012-11-25 00:20:00,0.0,1.9290,0.0009,402.27,0.20,36.3,26.9,138.06,30.60,24.65,36.41,0.04,-272.75,-272.75,-42,567,-932,25.0,1.7,-29.2,25.1,1.7,-29.0,5.73,2.41,-27.4,30.0
2012-11-25 00:21:00,0.0,1.9290,0.0010,402.25,0.19,40.1,32.3,138.06,30.60,24.65,36.41,0.04,-272.75,-272.75,-43,568,-932,25.0,1.7,-29.5,25.1,1.7,-29.1,5.73,2.34,-27.4,30.1
2012-11-25 00:22:00,0.0,1.9279,0.0008,402.15,0.20,25.7,27.5,138.06,30.60,24.66,36.42,0.04,-272.75,-272.75,-43,568,-932,25.0,1.6,-29.7,25.1,1.7,-29.4,5.73,2.33,-27.4,30.0
2012-11-25 00:23:00,0.0,1.9277,0.0010,402.18,0.24,31.7,27.9,138.06,30.60,24.65,36.42,0.04,-272.75,-272.75,-43,567,-932,25.0,1.6,-30.0,25.1,1.6,-29.8,5.73,2.40,-27.4,30.0
2012-11-25 00:24:00,0.0,1.9274,0.0011,402.24,0.17,28.2,23.2,138.06,30.60,24.65,36.41,0.04,-272.75,-272.75,-43,567,-932,25.0,1.6,-30.3,25.1,1.6,-30.0,5.73,2.43,-27.4,30.0
2012-11-25 00:25:00,0.0,1.9266,0.0009,402.02,0.23,28.8,28.1,138.06,30.60,24.65,36.42,0.04,-272.75,-272.75,-42,567,-932,25.0,1.5,-30.4,25.1,1.6,-30.1,5.73,2.36,-27.4,30.0
2012-11-25 00:26:00,0.0,1.9263,0.0006,402.05,0.22,23.5,25.1,138.06,30.60,24.65,36.42,0.04,-272.75,-272.75,-43,567,-932,25.0,1.5,-30.7,25.1,1.6,-30.1,5.73,2.32,-27.4,30.0
2012-11-25 00:27:00,0.0,1.9260,0.0011,402.18,0.21,28.4,24.8,138.06,30.60,24.66,36.41,0.04,-272.75,-272.75,-43,567,-932,25.0,1.5,-30.6,25.1,1.6,-30.2,5.73,2.38,-27.4,30.0
2012-11-25 00:28:00,0.0,1.9258,0.0007,402.04,0.21,24.6,22.3,138.06,30.60,24.66,36.42,0.04,-272.75,-272.75,-43,567,-932,25.0,1.5,-30.5,25.1,1.6,-30.2,5.73,2.43,-27.4,30.0
2012-11-25 00:29:00,0.0,1.9258,0.0012,402.07,0.21,32.3,29.5,138.06,30.60,24.66,36.42,0.04,-272.75,-272.75,-43,567,-932,25.0,1.5,-30.4,25.1,1.6,-30.1,5.73,2.37,-27.4,30.0
2012-11-25 00:30:00,0.0,1.9262,0.0009,402.17,0.17,27.0,27.0,138.06,30.60,24.65,36.41,0.04,-272.75,-272.75,-43,567,-932,25.0,1.6,-30.2,25.1,1.6,-29.9,5.73,2.32,-27.4,30.0
2012-11-25 00:31:00,0.0,1.9267,0.0010,402.15,0.24,26.0,27.1,138.06,30.60,24.65,36.42,0.04,-272.75,-272.75,-42,567,-932,25.0,1.6,-30.1,25.1,1.6,-29.8,5.73,2.37,-27.4,30.0
2012-11-25 00:32:00,0.0,1.9275,0.0009,402.12,0.24,29.3,26.9,138.06,30.60,24.65,36.42,0.04,-272.75,-272.75,-43,567,-932,25.0,1.6,-30.1,25.1,1.6,-29.7,5.73,2.43,-27.4,30.0
2012-11-25 00:33:00,0.0,1.9267,0.0010,402.15,0.21,27.1,23.3,138.06,30.61,24.66,36.41,0.04,-272.74,-272.75,-43,567,-932,25.0,1.6,-30.2,25.1,1.6,-29.7,5.73,2.39,-27.4,30.0
2012-11-25 00:34:00,0.0,1.9248,0.0008,402.09,0.20,35.1,28.2,138.06,30.61,24.66,36.41,0.04,-272.75,-272.75,-43,567,-932,25.0,1.6,-30.2,25.1,1.6,-29.8,5.73,2.32,-27.5,30.0
2012-11-25 00:35:00,0.0,1.9255,0.0012,402.18,0.21,30.7,26.9,138.06,30.61,24.65,36.41,0.04,-272.75,-272.75,-43,567,-932,25.0,1.6,-30.2,25.1,1.6,-29.7,5.73,2.35,-27.5,30.0
2012-11-25 00:36:00,0.0,1.9254,0.0011,402.04,0.21,29.9,25.1,138.06,30.61,24.65,36.42,0.04,-272.74,-272.75,-42,568,-932,25.0,1.6,-30.2,25.1,1.6,-29.8,5.73,2.42,-27.5,30.0
2012-11-25 00:37:00,0.0,1.9248,0.0009,402.03,0.22,23.5,24.9,138.06,30.61,24.65,36.42,0.04,-272.75,-272.75,-43,567,-932,24.9,1.7,-29.2,25.1,1.8,-28.9,5.73,2.40,-27.5,30.0
2012-11-25 00:38:00,0.0,1.9247,0.0010,401.99,0.20,31.8,29.2,138.06,30.61,24.65,36.42,0.04,-272.75,-272.75,-43,567,-932,25.0,1.7,-29.6,25.1,1.7,-29.2,5.73,2.34,-27.5,30.0
2012-11-25 00:39:00,0.0,1.9244,0.0008,402.01,0.18,26.7,26.4,138.06,30.61,24.66,36.42,0.04,-272.75,-272.75,-43,567,-932,25.0,1.6,-30.0,25.1,1.7,-29.5,5.73,2.33,-27.5,30.0
2012-11-25 00:40:00,0.0,1.9246,0.0010,402.08,0.19,26.3,23.2,138.06,30.61,24.65,36.42,0.04,-272.75,-272.74,-43,567,-932,25.0,1.6,-30.0,25.1,1.7,-29.6,5.73,2.41,-27.5,30.0
2012-11-25 00:41:00,0.0,1.9244,0.0011,402.12,0.21,29.2,28.2,138.06,30.61,24.65,36.41,0.04,-272.75,-272.75,-43,567,-932,24.9,1.6,-30.0,25.1,1.6,-29.7,5.73,2.42,-27.5,30.0
2012-11-25 00:42:00,0.0,1.9242,0.0010,401.97,0.21,26.3,23.6,138.06,30.61,24.66,36.42,0.04,-272.75,-272.75,-43,567,-932,24.9,1.6,-30.0,25.1,1.6,-29.8,5.73,2.35,-27.5,30.0
2012-11-25 00:43:00,0.0,1.9244,0.0011,402.03,0.23,32.2,28.5,138.06,30.61,24.65,36.42,0.04,-272.75,-272.75,-42,567,-932,24.9,1.6,-30.0,25.1,1.6,-29.7,5.73,2.32,-27.5,29.9
2012-11-25 00:44:00,0.0,1.9243,0.0010,402.18,0.24,25.7,27.2,138.06,30.60,24.65,36.41,0.04,-272.75,-272.75,-43,567,-932,24.9,1.6,-30.0,25.1,1.6,-29.8,5.73,2.39,-27.5,29.9
2012-11-25 00:45:00,0.0,1.9242,0.0010,402.06,0.23,24.5,26.4,138.06,30.60,24.65,36.42,0.04,-272.75,-272.75,-43,567,-932,25.0,1.6,-29.9,25.1,1.7,-29.6,5.73,2.42,-27.5,29.9
2012-11-25 00:46:00,0.0,1.9239,0.0011,402.11,0.19,26.0,25.3,138.06,30.60,24.65,36.42,0.04,-272.74,-272.75,-43,567,-932,24.9,1.6,-29.8,25.1,1.7,-29.6,5.73,2.37,-27.5,29.9
2012-11-25 00:47:00,0.0,1.9247,0.0011,402.04,0.23,22.7,24.9,138.06,30.60,24.65,36.42,0.04,-272.75,-272.75,-43,567,-932,24.9,1.6,-29.8,25.1,1.7,-29.5,5.73,2.32,-27.5,30.0
2012-11-25 00:48:00,0.0,1.9243,0.0011,402.10,0.20,17.2,19.6,138.06,30.60,24.65,36.42,0.04,-272.75,-272.75,-42,567,-932,25.0,1.6,-29.7,25.1,1.7,-29.4,5.73,2.37,-27.6,30.0
2012-11-25 00:49:00,0.0,1.9241,0.0011,402.13,0.18,21.3,21.1,138.06,30.60,24.65,36.41,0.04,-272.75,-272.75,-42,567,-932,25.0,1.7,-29.7,25.1,1.7,-29.4,5.73,2.43,-27.6,30.0
2012-11-25 00:50:00,0.0,1.9241,0.0011,402.05,0.21,28.6,28.3,138.06,30.60,24.65,36.41,0.04,-272.75,-272.75,-43,567,-932,24.9,1.7,-29.6,25.1,1.7,-29.4,5.73,2.39,-27.6,30.0
2012-11-25 00:51:00,0.0,1.9242,0.0009,401.94,0.26,28.2,22.3,138.06,30.60,24.65,36.42,0.04,-272.75,-272.75,-43,567,-932,25.0,1.6,-29.7,25.1,1.7,-29.3,5.73,2.32,-27.5,30.0
2012-11-25 00:52:00,0.0,1.9252,0.0009,402.07,0.22,24.5,26.6,138.06,30.60,24.65,36.41,0.04,-272.75,-272.75,-43,567,-932,25.0,1.7,-29.5,25.1,1.7,-29.2,5.73,2.36,-27.5,30.0
2012-11-25 00:53:00,0.0,1.9243,0.0010,402.00,0.17,21.3,22.4,138.06,30.60,24.65,36.41,0.04,-272.74,-272.75,-43,567,-932,24.9,1.7,-29.5,25.1,1.7,-29.3,5.73,2.42,-27.6,30.0
2012-11-25 00:54:00,0.0,1.9245,0.0010,401.96,0.21,25.5,26.4,138.06,30.60,24.65,36.41,0.04,-272.75,-272.75,-42,567,-932,24.9,1.7,-29.4,25.1,1.7,-29.2,5.73,2.40,-27.6,30.0
2012-11-25 00:55:00,0.0,1.9242,0.0009,401.91,0.21,25.2,23.7,138.06,30.60,24.65,36.41,0.04,-272.75,-272.75,-43,567,-931,25.0,1.7,-29.4,25.1,1.7,-29.2,5.73,2.33,-27.6,30.0
2012-11-25 00:56:00,0.0,1.9241,0.0007,401.90,0.17,23.8,25.6,138.06,30.60,24.65,36.42,0.04,-272.74,-272.74,-43,567,-932,24.9,1.7,-29.3,25.1,1.7,-29.0,5.73,2.34,-27.6,30.0
2012-11-25 00:57:00,0.0,1.9241,0.0007,401.85,0.22,22.3,24.4,138.06,30.60,24.65,36.42,0.04,-272.75,-272.75,-43,567,-932,24.9,1.7,-29.3,25.1,1.7,-29.1,5.73,2.42,-27.6,30.0
2012-11-25 00:58:00,0.0,1.9245,0.0011,402.06,0.22,25.7,25.4,138.06,30.60,24.65,36.41,0.04,-272.75,-272.75,-43,567,-932,24.9,1.7,-29.3,25.1,1.8,-28.9,5.73,2.41,-27.6,29.9
2012-11-25 00:59:00,0.0,1.9243,0.0010,401.95,0.21,29.6,22.8,138.06,30.60,24.65,36.41,0.04,-272.75,-272.75,-42,567,-932,24.9,1.7,-29.1,25.1,1.8,-28.9,5.73,2.35,-27.6,30.0
2012-11-25 01:00:00,0.0,1.9244,0.0008,401.92,0.22,24.7,26.0,138.06,30.60,24.65,36.42,0.04,-272.74,-272.75,-43,567,-932,24.9,1.7,-29.1,25.1,1.8,-28.9,5.73,2.33,-27.6,30.0
2012-11-25 01:01:00,0.0,1.9247,0.0010,401.96,0.21,26.7,23.9,138.06,30.60,24.65,36.42,0.04,-272.75,-272.75,-43,567,-932,24.9,1.7,-29.2,25.1,1.8,-28.9,5.73,2.38,-27.6,30.0
2012-11-25 01:02:00,0.0,1.9251,0.0009,402.02,0.23,27.1,25.9,138.06,30.60,24.65,36.41,0.04,-272.75,-272.75,-43,567,-932,24.9,1.7,-29.3,25.1,1.8,-28.9,5.73,2.43,-27.6,30.0
2012-11-25 01:03:00,0.0,1.9257,0.0013,401.98,0.21,27.3,24.6,138.06,30.60,24.65,36.42,0.04,-272.74,-272.75,-43,567,-932,24.9,1.7,-29.3,25.1,1.7,-29.1,5.73,2.39,-27.6,30.0
2012-11-25 01:04:00,0.0,1.9279,0.0009,402.08,0.22,26.5,26.0,138.06,30.59,24.65,36.42,0.04,-272.75,-272.75,-43,567,-932,24.9,1.7,-29.4,25.1,1.7,-29.1,5.73,2.32,-27.6,30.0
2012-11-25 01:05:00,0.0,1.9282,0.0010,402.25,0.18,18.4,21.6,138.06,30.59,24.65,36.42,0.04,-272.75,-272.75,-43,567,-932,24.9,1.7,-29.6,25.1,1.7,-29.2,5.73,2.35,-27.6,30.0
2012-11-25 01:06:00,0.0,1.9277,0.0010,402.23,0.26,23.3,23.6,138.06,30.59,24.65,36.42,0.04,-272.75,-272.75,-43,567,-932,24.9,1.6,-29.8,25.1,1.7,-29.4,5.73,2.42,-27.6,30.0
2012-11-25 01:07:00,0.0,1.9275,0.0009,402.28,0.22,24.6,27.0,138.06,30.59,24.65,36.43,0.04,-272.75,-272.75,-43,567,-932,24.9,1.6,-29.9,25.1,1.7,-29.6,5.73,2.41,-27.6,30.0
2012-11-25 01:08:00,0.0,1.9285,0.0013,402.39,0.22,22.6,22.6,138.06,30.59,24.65,36.41,0.04,-272.75,-272.75,-43,567,-932,24.9,1.6,-29.9,25.0,1.7,-29.6,5.73,2.35,-27.6,30.0
2012-11-25 01:09:00,0.0,1.9306,0.0010,402.37,0.19,23.1,23.8,138.06,30.59,24.66,36.42,0.04,-272.75,-272.75,-43,567,-932,24.9,1.6,-30.0,25.1,1.7,-29.6,5.73,2.33,-27.7,30.0
2012-11-25 01:10:00,0.0,1.9306,0.0008,402.32,0.19,25.4,23.6,138.06,30.59,24.66,36.42,0.04,-272.74,-272.75,-43,567,-932,24.9,1.6,-30.0,25.0,1.6,-29.8,5.73,2.39,-27.7,30.0
2012-11-25 01:11:00,0.0,1.9302,0.0010,402.27,0.17,25.2,25.7,138.06,30.59,24.66,36.42,0.04,-272.75,-272.75,-42,567,-932,24.9,1.6,-30.0,25.0,1.6,-29.7,5.73,2.43,-27.7,30.0
2012-11-25 01:12:00,0.0,1.9290,0.0015,402.17,0.19,22.9,27.5,138.06,30.59,24.65,36.41,0.04,-272.75,-272.75,-42,567,-932,24.9,1.6,-30.0,25.1,1.6,-29.7,5.73,2.37,-27.7,30.0
2012-11-25 01:13:00,0.0,1.9279,0.0012,402.11,0.20,28.5,25.7,138.06,30.59,24.66,36.41,0.04,-272.74,-272.75,-43,567,-932,24.9,1.6,-30.1,25.0,1.6,-29.8,5.73,2.32,-27.7,29.9
2012-11-25 01:14:00,0.0,1.9261,0.0011,402.02,0.24,20.4,24.1,138.06,30.59,24.65,36.41,0.04,-272.75,-272.75,-43,567,-932,24.9,1.6,-30.2,25.1,1.6,-29.8,5.73,2.36,-27.7,29.9
2012-11-25 01:15:00,0.0,1.9255,0.0011,401.95,0.23,20.4,23.0,138.06,30.59,24.65,36.42,0.04,-272.75,-272.75,-43,567,-932,24.9,1.6,-30.2,25.0,1.6,-29.7,5.73,2.42,-27.7,29.9
2012-11-25 01:16:00,0.0,1.9256,0.0010,402.07,0.19,18.5,21.1,138.06,30.59,24.65,36.41,0.04,-272.75,-272.75,-43,567,-932,24.9,1.6,-30.1,25.0,1.6,-29.7,5.73,2.40,-27.7,30.0
2012-11-25 01:17:00,0.0,1.9265,0.0009,402.05,0.21,21.9,20.3,138.06,30.59,24.65,36.42,0.04,-272.75,-272.75,-42,567,-932,24.9,1.6,-30.0,25.1,1.6,-29.8,5.73,2.34,-27.7,30.0
2012-11-25 01:18:00,0.0,1.9253,0.0011,402.11,0.20,25.8,27.5,138.06,30.59,24.65,36.41,0.04,-272.75,-272.75,-42,567,-932,24.9,1.6,-29.9,25.0,1.7,-29.6,5.73,2.34,-27.7,30.0
2012-11-25 01:19:00,0.0,1.9251,0.0009,402.06,0.18,21.8,22.7,138.06,30.59,24.65,36.41,0.04,-272.75,-272.75,-43,567,-932,24.9,1.6,-29.8,25.0,1.7,-29.4,5.73,2.41,-27.7,29.9
2012-11-25 01:20:00,0.0,1.9247,0.0010,401.96,0.23,20.0,23.5,138.06,30.58,24.65,36.42,0.04,-272.75,-272.75,-43,567,-932,24.9,1.7,-29.5,25.0,1.7,-29.3,5.73,2.42,-27.7,29.9
2012-11-25 01:21:00,0.0,1.9253,0.0009,402.04,0.25,24.1,28.6,138.06,30.58,24.65,36.41,0.04,-272.75,-272.75,-43,567,-932,24.9,1.7,-29.5,25.0,1.7,-29.0,5.73,2.35,-27.7,29.9
2012-11-25 01:22:00,0.0,1.9249,0.0010,402.03,0.23,22.9,23.9,138.06,30.58,24.65,36.42,0.04,-272.75,-272.75,-42,567,-932,24.9,1.7,-29.3,25.0,1.7,-29.0,5.73,2.33,-27.7,29.9
2012-11-25 01:23:00,0.0,1.9251,0.0009,402.02,0.19,26.7,28.7,138.06,30.58,24.65,36.42,0.04,-272.75,-272.75,-42,567,-932,24.9,1.7,-29.3,25.0,1.7,-29.0,5.73,2.39,-27.7,29.9
2012-11-25 01:24:00,0.0,1.9244,0.0009,401.90,0.16,22.7,22.0,138.06,30.58,24.65,36.41,0.04,-272.75,-272.75,-43,567,-932,24.9,1.7,-29.3,25.0,1.8,-28.9,5.73,2.43,-27.7,29.9
2012-11-25 01:25:00,0.0,1.9243,0.0009,401.89,0.21,28.1,24.1,138.06,30.58,24.65,36.42,0.04,-272.75,-272.75,-43,567,-932,24.9,1.7,-29.1,25.0,1.8,-28.9,5.73,2.37,-27.7,29.9
2012-11-25 01:26:00,0.0,1.9244,0.0008,401.93,0.23,26.2,23.0,138.06,30.58,24.65,36.42,0.04,-272.75,-272.75,-43,567,-932,24.9,1.7,-29.2,25.0,1.8,-28.9,5.73,2.32,-27.7,29.9
2012-11-25 01:27:00,0.0,1.9240,0.0008,401.84,0.24,15.8,22.8,138.06,30.58,24.65,36.41,0.04,-272.75,-272.75,-43,567,-932,24.9,1.7,-29.2,25.0,1.8,-28.9,5.73,2.37,-27.7,29.9
2012-11-25 01:28:00,0.0,1.9230,0.0008,401.76,0.16,18.9,22.3,138.06,30.58,24.66,36.42,0.04,-272.75,-272.75,-43,567,-932,24.9,1.7,-29.3,25.0,1.8,-28.9,5.73,2.42,-27.7,29.9
2012-11-25 01:29:00,0.0,1.9237,0.0010,401.84,0.20,22.5,25.6,138.06,30.58,24.65,36.42,0.04,-272.75,-272.75,-42,567,-932,24.9,1.7,-29.3,25.0,1.8,-28.9,5.73,2.40,-27.7,29.9
2012-11-25 01:30:00,0.0,1.9238,0.0010,401.84,0.21,24.7,27.6,138.06,30.58,24.65,36.41,0.04,-272.75,-272.75,-43,567,-932,24.9,1.7,-29.2,25.0,1.8,-28.9,5.73,2.33,-27.7,29.9
2012-11-25 01:31:00,0.0,1.9236,0.0009,401.86,0.16,26.6,23.5,138.06,30.58,24.66,36.41,0.04,-272.75,-272.75,-43,567,-932,24.9,1.7,-29.2,25.0,1.8,-29.0,5.73,2.34,-27.7,29.9
2012-11-25 01:32:00,0.0,1.9238,0.0009,401.93,0.22,20.0,21.6,138.06,30.58,24.65,36.41,0.04,-272.75,-272.75,-43,567,-932,24.9,1.7,-29.2,25.0,1.8,-28.9,5.73,2.41,-27.7,29.9
2012-11-25 01:33:00,0.0,1.9238,0.0011,401.84,0.25,24.9,26.2,138.06,30.58,24.65,36.42,0.04,-272.75,-272.75,-43,567,-932,24.9,1.7,-29.2,25.0,1.8,-28.9,5.73,2.42,-27.7,29.9
2012-11-25 01:34:00,0.0,1.9237,0.0010,401.95,0.22,18.8,21.3,138.06,30.58,24.65,36.41,0.04,-272.74,-272.75,-42,567,-932,24.9,1.7,-29.3,25.0,1.8,-29.0,5.73,2.35,-27.7,29.9
2012-11-25 01:35:00,0.0,1.9233,0.0008,401.85,0.20,29.2,28.3,138.06,30.58,24.66,36.42,0.04,-272.75,-272.75,-42,567,-932,24.9,1.7,-29.4,25.0,1.8,-28.9,5.73,2.33,-27.7,29.9
2012-11-25 01:36:00,0.0,1.9234,0.0007,401.95,0.17,24.7,27.2,138.06,30.58,24.65,36.41,0.04,-272.75,-272.75,-43,567,-932,24.9,1.7,-29.4,25.0,1.8,-29.0,5.73,2.40,-27.8,29.9
2012-11-25 01:37:00,0.0,1.9231,0.0008,401.82,0.21,24.3,23.6,138.06,30.58,24.65,36.42,0.04,-272.75,-272.75,-43,567,-932,24.9,1.7,-29.3,25.0,1.7,-29.1,5.73,2.42,-27.7,29.9
2012-11-25 01:38:00,0.0,1.9233,0.0007,401.89,0.19,20.7,23.7,138.06,30.58,24.65,36.42,0.04,-272.75,-272.75,-43,567,-932,24.9,1.7,-29.4,25.0,1.7,-29.1,5.73,2.38,-27.8,29.9
2012-11-25 01:39:00,0.0,1.9234,0.0009,401.88,0.19,23.2,28.8,138.06,30.58,24.65,36.42,0.04,-272.75,-272.75,-43,567,-932,24.9,1.7,-29.3,25.0,1.7,-29.1,5.73,2.32,-27.8,29.9
2012-11-25 01:40:00,0.0,1.9239,0.0009,401.94,0.20,19.8,20.3,138.06,30.58,24.65,36.42,0.04,-272.75,-272.75,-42,567,-932,24.9,1.7,-29.3,25.0,1.7,-29.0,5.73,2.36,-27.8,29.9
2012-11-25 01:41:00,0.0,1.9244,0.0009,402.10,0.18,22.1,23.3,138.06,30.58,24.65,36.42,0.04,-272.75,-272.75,-43,567,-932,24.8,1.7,-29.3,25.0,1.7,-29.1,5.73,2.43,-27.7,29.9
2012-11-25 01:42:00,0.0,1.9242,0.0010,402.00,0.24,26.5,28.7,138.06,30.58,24.65,36.42,0.04,-272.75,-272.75,-43,567,-932,24.9,4.0,-21.2,25.0,3.9,-21.4,5.73,2.40,-27.8,29.9
2012-11-25 01:43:00,0.0,1.9240,0.0011,402.04,0.19,27.2,29.9,138.06,30.57,24.65,36.41,0.04,-272.75,-272.75,-43,567,-932,24.8,2.6,-24.9,25.0,2.8,-24.2,5.73,2.33,-27.8,29.9
2012-11-25 01:44:00,0.0,1.9243,0.0010,402.24,0.19,17.7,20.2,138.06,30.57,24.65,36.41,0.04,-272.74,-272.75,-43,567,-932,24.8,1.8,-28.7,25.0,1.9,-28.3,5.73,2.34,-27.8,29.9
2012-11-25 01:45:00,0.0,1.9252,0.0010,402.32,0.21,19.1,21.5,138.06,30.57,24.65,36.42,0.04,-272.75,-272.75,-43,567,-932,24.9,1.7,-29.4,25.0,1.7,-29.1,5.73,2.41,-27.8,29.9
2012-11-25 01:46:00,0.0,1.9249,0.0008,402.51,0.20,24.7,24.8,138.06,30.57,24.65,36.41,0.04,-272.74,-272.75,-42,567,-932,24.9,1.7,-29.5,25.0,1.7,-29.0,5.73,2.42,-27.8,29.9
2012-11-25 01:47:00,0.0,1.9251,0.0009,402.45,0.22,23.7,21.0,138.06,30.57,24.65,36.42,0.04,-272.75,-272.75,-43,567,-932,24.8,1.7,-29.5,25.0,1.7,-29.0,5.73,2.35,-27.8,29.9
2012-11-25 01:48:00,0.0,1.9254,0.0009,402.67,0.19,24.7,24.1,138.06,30.57,24.65,36.41,0.04,-272.75,-272.75,-43,567,-932,24.9,1.7,-29.3,25.0,1.7,-29.1,5.73,2.33,-27.8,29.9
2012-11-25 01:49:00,0.0,1.9251,0.0008,402.77,0.20,24.9,23.7,138.06,30.57,24.66,36.41,0.04,-272.75,-272.75,-43,567,-932,24.9,1.7,-29.4,25.0,1.7,-29.0,5.73,2.38,-27.8,29.9
2012-11-25 01:50:00,0.0,1.9254,0.0008,402.80,0.19,21.6,20.4,138.06,30.57,24.65,36.42,0.04,-272.75,-272.75,-43,567,-932,24.8,1.7,-29.4,25.0,1.7,-29.1,5.73,2.43,-27.8,29.9
2012-11-25 01:51:00,0.0,1.9250,0.0010,402.74,0.17,19.9,18.2,138.06,30.57,24.66,36.42,0.04,-272.74,-272.75,-43,567,-932,24.9,1.7,-29.3,25.0,1.7,-29.0,5.73,2.39,-27.8,29.9
2012-11-25 01:52:00,0.0,1.9254,0.0008,402.77,0.22,28.5,26.5,138.06,30.57,24.65,36.42,0.04,-272.75,-272.75,-42,567,-932,24.9,1.7,-29.4,25.0,1.8,-29.0,5.73,2.33,-27.8,29.9
2012-11-25 01:53:00,0.0,1.9248,0.0010,402.74,0.21,21.0,23.8,138.06,30.57,24.66,36.42,0.04,-272.74,-272.75,-42,567,-932,24.8,1.7,-29.2,25.0,1.8,-28.9,5.73,2.35,-27.8,29.9
2012-11-25 01:54:00,0.0,1.9254,0.0009,402.76,0.20,24.1,21.6,138.06,30.56,24.65,36.42,0.04,-272.75,-272.74,-43,567,-932,24.9,1.7,-29.2,25.0,1.8,-29.0,5.73,2.41,-27.7,29.9
2012-11-25 01:55:00,0.0,1.9250,0.0010,402.76,0.26,21.0,25.2,138.06,30.56,24.65,36.41,0.04,-272.75,-272.75,-43,567,-932,24.9,1.7,-29.2,25.0,1.8,-28.9,5.73,2.42,-27.8,29.9
2012-11-25 01:56:00,0.0,1.9243,0.0008,402.11,0.21,23.6,24.5,138.06,30.56,24.65,36.42,0.04,-272.75,-272.75,-43,567,-932,24.8,1.7,-29.2,25.0,1.8,-28.9,5.73,2.36,-27.7,29.9
2012-11-25 01:57:00,0.0,1.9233,0.0009,401.74,0.23,22.5,19.7,138.06,30.56,24.65,36.42,0.04,-272.75,-272.75,-43,567,-932,24.9,1.7,-29.2,25.0,1.8,-28.9,5.73,2.33,-27.7,29.9
2012-11-25 01:58:00,0.0,1.9225,0.0009,401.61,0.23,27.7,25.3,138.06,30.56,24.65,36.43,0.04,-272.75,-272.75,-42,567,-932,24.9,1.7,-29.1,25.0,1.8,-29.0,5.73,2.37,-27.7,29.9
2012-11-25 01:59:00,0.0,1.9224,0.0008,401.74,0.20,14.6,18.1,138.06,30.56,24.65,36.42,0.04,-272.75,-272.75,-42,567,-932,24.9,1.7,-29.4,25.0,1.8,-29.0,5.73,2.43,-27.8,29.9
2012-11-25 02:00:00,0.0,1.9222,0.0009,401.73,0.23,18.9,20.0,138.06,30.56,24.66,36.42,0.04,-272.74,-272.75,-43,567,-932,24.9,1.7,-29.3,25.0,1.7,-29.1,5.73,2.40,-27.8,29.9
2012-11-25 02:01:00,0.0,1.9225,0.0009,401.78,0.21,21.6,23.5,138.06,30.56,24.65,36.42,0.04,-272.75,-272.75,-43,566,-932,24.9,1.7,-29.5,25.0,1.7,-29.1,5.73,2.34,-27.7,29.9
2012-11-25 02:02:00,0.0,1.9231,0.0010,401.68,0.19,24.5,25.8,138.06,30.56,24.65,36.42,0.04,-272.75,-272.75,-43,567,-932,24.8,1.7,-29.4,25.0,1.7,-29.1,5.73,2.33,-27.7,29.9
2012-11-25 02:03:00,0.0,1.9241,0.0009,401.76,0.24,24.7,24.9,138.06,30.56,24.65,36.42,0.04,-272.75,-272.75,-42,567,-932,24.8,1.7,-29.4,24.9,1.7,-29.1,5.73,2.39,-27.7,29.9
2012-11-25 02:04:00,0.0,1.9240,0.0010,401.76,0.18,29.6,24.5,138.06,30.56,24.66,36.41,0.04,-272.75,-272.75,-42,567,-932,24.8,1.7,-29.4,25.0,1.8,-29.0,5.73,2.43,-27.8,29.8
2012-11-25 02:05:00,0.0,1.9234,0.0009,401.65,0.17,22.4,22.2,138.06,30.56,24.65,36.43,0.04,-272.75,-272.75,-42,567,-932,24.8,1.7,-29.3,25.0,1.8,-28.9,5.73,2.38,-27.7,29.8
2012-11-25 02:06:00,0.0,1.9237,0.0008,402.05,0.33,23.2,22.5,138.06,30.56,24.65,36.41,0.04,-272.75,-272.75,-42,567,-932,24.8,1.7,-29.4,25.0,1.8,-28.9,5.73,2.32,-27.7,29.9
2012-11-25 02:07:00,0.0,1.9247,0.0009,402.43,0.24,21.5,22.9,138.06,30.56,24.65,36.42,0.04,-272.75,-272.75,-43,567,-932,24.8,1.7,-29.2,25.0,1.8,-28.9,5.73,2.36,-27.7,29.8
2012-11-25 02:08:00,0.0,1.9254,0.0011,402.34,0.22,24.2,23.7,138.06,30.55,24.65,36.41,0.04,-272.74,-272.75,-43,567,-932,24.8,1.7,-29.2,25.0,1.8,-28.9,5.73,2.42,-27.7,29.9
2012-11-25 02:09:00,0.0,1.9263,0.0012,402.25,0.26,22.6,24.3,138.06,30.55,24.65,36.41,0.04,-272.75,-272.75,-43,567,-932,24.8,1.7,-29.2,25.0,1.8,-28.8,5.73,2.41,-27.7,29.9
2012-11-25 02:10:00,0.0,1.9253,0.0010,402.35,0.22,30.7,30.3,138.06,30.55,24.66,36.41,0.04,-272.75,-272.75,-42,567,-932,24.8,1.7,-29.1,25.0,1.8,-28.9,5.73,2.35,-27.7,29.9
2012-11-25 02:11:00,0.0,1.9254,0.0008,402.44,0.22,29.3,26.6,138.06,30.55,24.66,36.41,0.04,-272.75,-272.75,-42,567,-932,24.8,1.7,-29.3,24.9,1.8,-29.0,5.73,2.32,-27.7,29.9
2012-11-25 02:12:00,0.0,1.9254,0.0010,402.49,0.22,31.1,27.2,138.06,30.55,24.66,36.42,0.04,-272.75,-272.75,-42,567,-932,24.8,1.7,-29.2,25.0,1.8,-28.9,5.73,2.39,-27.7,29.9
2012-11-25 02:13:00,0.0,1.9259,0.0009,402.65,0.23,21.3,20.0,138.06,30.55,24.65,36.42,0.04,-272.75,-272.75,-43,566,-932,24.8,1.9,-28.2,25.0,2.0,-27.9,5.73,2.43,-27.7,29.8
2012-11-25 02:14:00,0.0,1.9263,0.0009,402.74,0.25,20.5,21.0,138.06,30.55,24.65,36.42,0.04,-272.75,-272.75,-43,567,-932,24.8,1.7,-29.2,25.0,1.8,-28.9,5.73,2.39,-27.7,29.9
2012-11-25 02:15:00,0.0,1.9264,0.0009,402.86,0.20,18.0,20.9,138.06,30.55,24.65,36.41,0.04,-272.75,-272.75,-43,567,-932,24.8,1.7,-29.5,25.0,1.7,-29.2,5.73,2.33,-27.7,29.8
2012-11-25 02:16:00,0.0,1.9267,0.0009,402.77,0.23,25.9,24.0,138.06,30.55,24.65,36.42,0.04,-272.75,-272.75,-42,567,-932,24.8,1.7,-29.7,25.0,1.7,-29.3,5.73,2.35,-27.7,29.8
2012-11-25 02:17:00,0.0,1.9270,0.0010,402.73,0.20,30.6,31.2,138.06,30.55,24.65,36.42,0.04,-272.75,-272.75,-42,567,-932,24.8,1.6,-29.8,25.0,1.7,-29.4,5.73,2.41,-27.7,29.9